Location: Unspecified
(58.7730°N, 5.8460°E)
Time: 01:06:07
(UTC+02:00)

Resurs 1-4 Rocket - Visible Passes

Search period start: 25 October 2014 00:00
Search period end: 03 November 2014 23:00
Orbit: 801 x 814 km, 98.4° (Epoch: 23 October)

Date Brightness Start Highest point End Pass type
(mag) Time Alt. Az. Time Alt. Az. Time Alt. Az.
25 Oct 4.3 04:29:03 10° NE 04:33:06 22° E 04:37:08 10° SE visible
25 Oct 2.1 06:08:21 10° NNE 06:13:44 90° W 06:19:02 10° SSW visible
25 Oct 3.2 07:48:46 10° N 07:53:04 25° NW 07:57:20 10° WSW visible
26 Oct 4.8 03:05:17 10° NE 03:08:17 15° E 03:11:17 10° ESE visible
26 Oct 2.5 04:43:56 10° NNE 04:49:15 65° ESE 04:54:31 10° S visible
26 Oct 2.8 06:24:09 10° N 06:28:53 33° NW 06:33:35 10° WSW visible
27 Oct 3.1 04:19:34 10° NNE 04:24:42 45° E 04:29:46 10° S visible
27 Oct 2.4 05:59:34 10° N 06:04:38 45° WNW 06:09:39 10° SW visible
28 Oct 3.7 03:55:19 10° NNE 04:00:03 32° E 04:04:45 10° SSE visible
28 Oct 2.1 05:35:02 10° NNE 05:40:19 63° WNW 05:45:32 10° SW visible
29 Oct 4.3 03:31:12 10° NE 03:35:20 22° E 03:39:26 10° SE visible
29 Oct 2.0 05:10:33 10° NNE 05:15:55 87° WNW 05:21:13 10° SSW visible
29 Oct 3.2 06:51:00 10° N 06:55:13 25° NW 06:59:26 10° WSW visible
30 Oct 4.7 03:07:23 10° NE 03:10:32 16° E 03:13:39 10° ESE visible
30 Oct 2.4 04:46:07 10° NNE 04:51:27 67° ESE 04:56:43 10° S visible
30 Oct 2.8 06:26:22 10° N 06:31:03 32° NW 06:35:42 10° WSW visible
31 Oct 5.0 02:44:38 10° ENE 02:45:37 11° ENE 02:46:37 10° E visible
31 Oct 3.0 04:21:45 10° NNE 04:26:54 47° E 04:31:59 10° S visible
31 Oct 2.4 06:01:47 10° N 06:06:48 44° WNW 06:11:47 10° SW visible
31 Oct 5.1 17:35:38 10° WSW 17:37:54 13° W 17:40:11 10° NW visible
01 Nov 3.7 03:57:29 10° NNE 04:02:16 33° E 04:07:01 10° SSE visible
01 Nov 2.1 05:37:15 10° NNE 05:42:29 60° WNW 05:47:41 10° SW visible
02 Nov 4.2 03:33:21 10° NE 03:37:33 23° E 03:41:44 10° SE visible
02 Nov 2.0 05:12:45 10° NNE 05:18:06 84° WNW 05:23:22 10° SSW visible
02 Nov 3.2 06:53:13 10° N 06:57:22 24° NW 07:01:31 10° W visible
03 Nov 4.7 03:09:29 10° NE 03:12:45 16° E 03:16:01 10° ESE visible
03 Nov 2.3 04:48:18 10° NNE 04:53:38 70° ESE 04:58:25 13° S visible
03 Nov 2.9 06:28:35 10° N 06:33:12 31° NW 06:37:48 10° WSW visible
